Weather History for Palma de Mallorca, Spain

Change the Weather History Date:

Thursday, December 8, 2011

  Actual Average Record
Temperature  
Mean Temperature 53 °F -  
Max Temperature 66 °F 58 °F 66 °F (2000)
Min Temperature 40 °F 40 °F 33 °F (1998)
Degree Days  
Heating Degree Days 12    
Growing Degree Days 3 (Base 50)    
Moisture  
Dew Point 49 °F    
Average Humidity 91    
Maximum Humidity 100    
Minimum Humidity 66    
Precipitation  
Precipitation 0.00 in 0.06 in - ()
Sea Level Pressure  
Sea Level Pressure 30.36 in    
Wind  
Wind Speed 1 mph ()    
Max Wind Speed 8 mph    
Max Gust Speed -    
Visibility 6.5 miles    
Events Fog    
Averages and records for this station are not official NWS values.
T = Trace of Precipitation, MM = Missing Value Source: Averaged Metar Reports

Daily Weather History Graph

Daily Weather History Graph

Search for Another Location

Airport:

Trip Planner

Search our weather history database for the weather conditions in past years. The results will help you decide how hot, cold, wet, or windy it might be!

Date:

Astronomy

Dec. 08, 2011 Rise Set
Actual Time 7:56 AM CET 5:24 PM CET
Civil Twilight 7:26 AM CET 5:54 PM CET
Nautical Twilight 6:52 AM CET 6:28 PM CET
Astronomical Twilight 6:20 AM CET 7:01 PM CET
Moon 3:53 PM CET (12/8) 5:54 AM CET (12/8)
Length of Visible Light 10h 28m
Length of Day
9h 28m
Waxing Gibbous, 96% of the Moon is Illuminated
Dec 8
Waxing Gibbous
Dec 10
Full
Dec 18
Last Quarter
Dec 24
New
Jan 1
First Quarter

Hourly Weather History & Observations

Time (CET) Temp. Dew Point Humidity Pressure Visibility Wind Dir Wind Speed Gust Speed Precip Events Conditions
12:00 AM 46.4 °F 46.4 °F 100% 30.39 in - Calm Calm - N/A   Clear
12:30 AM 44.6 °F 42.8 °F 93% 30.39 in - Calm Calm - N/A   Clear
1:00 AM 44 °F 43 °F 94% 30.40 in 12 mi NNE 1.2 mph - -   Scattered Clouds
1:00 AM 44.6 °F 42.8 °F 93% 30.39 in 6.2 mi NNE 1.2 mph - N/A   Partly Cloudy
1:30 AM 46.4 °F 44.6 °F 93% 30.39 in 6.2 mi Calm Calm - N/A   Partly Cloudy
2:00 AM 44.6 °F 44.6 °F 100% 30.39 in 6.2 mi Calm Calm - N/A   Partly Cloudy
2:30 AM 44.6 °F 42.8 °F 93% 30.39 in 6.2 mi Calm Calm - N/A   Partly Cloudy
3:00 AM 44.6 °F 44.6 °F 100% 30.36 in 6.2 mi Calm Calm - N/A   Partly Cloudy
3:30 AM 42.8 °F 42.8 °F 100% 30.36 in 6.2 mi NE 1.2 mph - N/A   Partly Cloudy
4:00 AM 42.8 °F 42.8 °F 100% 30.36 in 6.2 mi NNE 2.3 mph - N/A   Partly Cloudy
4:30 AM 42.8 °F 42.8 °F 100% 30.36 in 6.2 mi Calm Calm - N/A   Partly Cloudy
5:00 AM 42.8 °F 42.8 °F 100% 30.36 in 6.2 mi Calm Calm - N/A   Partly Cloudy
5:30 AM 41.0 °F 41.0 °F 100% 30.36 in 6.2 mi North 2.3 mph - N/A   Partly Cloudy
6:00 AM 41.0 °F 41.0 °F 100% 30.36 in 6.2 mi NE 2.3 mph - N/A   Partly Cloudy
6:30 AM 41.0 °F 41.0 °F 100% 30.36 in 6.2 mi NE 2.3 mph - N/A   Partly Cloudy
7:00 AM 42 °F 42 °F 100% 30.38 in 9 mi Calm Calm - -   Scattered Clouds
7:00 AM 41.0 °F 41.0 °F 100% 30.36 in 6.2 mi Calm Calm - N/A   Partly Cloudy
7:30 AM 41.0 °F 41.0 °F 100% 30.36 in 6.2 mi Variable 1.2 mph - N/A   Partly Cloudy
8:00 AM 42.8 °F 42.8 °F 100% 30.39 in 6.2 mi Calm Calm - N/A   Partly Cloudy
8:30 AM 42.8 °F 42.8 °F 100% 30.39 in 6.2 mi NE 2.3 mph - N/A   Partly Cloudy
9:00 AM 46.4 °F 46.4 °F 100% 30.39 in 6.2 mi Variable 2.3 mph - N/A   Partly Cloudy
9:30 AM 50.0 °F 50.0 °F 100% 30.39 in 6.2 mi Variable 2.3 mph - N/A   Partly Cloudy
10:00 AM 53.6 °F 51.8 °F 94% 30.42 in 6.2 mi NE 3.5 mph - N/A   Partly Cloudy
10:30 AM 57.2 °F 51.8 °F 82% 30.42 in 6.2 mi NE 4.6 mph - N/A   Partly Cloudy
11:00 AM 60.8 °F 53.6 °F 77% 30.42 in 6.2 mi Variable 1.2 mph - N/A   Partly Cloudy
11:30 AM 64.4 °F 53.6 °F 68% 30.42 in 6.2 mi Calm Calm - N/A   Partly Cloudy
12:00 PM 64.4 °F 55.4 °F 73% 30.39 in 6.2 mi Variable 1.2 mph - N/A   Partly Cloudy
12:30 PM 66.2 °F 55.4 °F 68% 30.39 in 6.2 mi Variable 2.3 mph - N/A   Partly Cloudy
1:00 PM 65 °F 56 °F 66% 30.39 in 19 mi WSW 3.5 mph - -   Scattered Clouds
1:00 PM 64.4 °F 55.4 °F 73% 30.39 in 6.2 mi WSW 5.8 mph - N/A   Partly Cloudy
1:30 PM 64.4 °F 55.4 °F 73% 30.36 in 6.2 mi WSW 4.6 mph - N/A   Partly Cloudy
2:00 PM 64.4 °F 57.2 °F 77% 30.36 in 6.2 mi SW 6.9 mph - N/A   Partly Cloudy
2:30 PM 64.4 °F 57.2 °F 77% 30.33 in 6.2 mi WSW 5.8 mph - N/A   Partly Cloudy
3:00 PM 62.6 °F 57.2 °F 82% 30.33 in 6.2 mi SW 8.1 mph - N/A   Partly Cloudy
3:30 PM 62.6 °F 57.2 °F 82% 30.33 in 6.2 mi SW 6.9 mph - N/A   Partly Cloudy
4:00 PM 62.6 °F 57.2 °F 82% 30.33 in 6.2 mi SSW 5.8 mph - N/A   Partly Cloudy
4:30 PM 62.6 °F 57.2 °F 82% 30.33 in 6.2 mi SSW 3.5 mph - N/A   Partly Cloudy
5:00 PM 62.6 °F 57.2 °F 82% 30.33 in 6.2 mi SSW 2.3 mph - N/A   Partly Cloudy
5:30 PM 60.8 °F 55.4 °F 82% 30.33 in 6.2 mi SW 2.3 mph - N/A   Partly Cloudy
6:00 PM 59.0 °F 53.6 °F 82% 30.33 in 6.2 mi Calm Calm - N/A   Partly Cloudy
6:30 PM 55.4 °F 51.8 °F 88% 30.33 in 6.2 mi SSE 1.2 mph - N/A   Partly Cloudy
7:00 PM 54 °F 52 °F 91% 30.34 in 19 mi ENE 1.2 mph - -   Scattered Clouds
7:00 PM 53.6 °F 51.8 °F 94% 30.33 in 6.2 mi Calm Calm - N/A   Partly Cloudy
7:30 PM 53.6 °F 51.8 °F 94% 30.33 in 6.2 mi Calm Calm - N/A   Partly Cloudy
8:00 PM 51.8 °F 51.8 °F 100% 30.33 in 6.2 mi Calm Calm - N/A   Partly Cloudy
8:30 PM 50.0 °F 50.0 °F 100% 30.33 in 5.0 mi Calm Calm - N/A   Partly Cloudy
9:00 PM 46.4 °F 46.4 °F 100% 30.33 in 4.3 mi Calm Calm - N/A   Partly Cloudy
9:30 PM 48.2 °F 48.2 °F 100% 30.33 in 4.3 mi Calm Calm - N/A Fog Patches of Fog
10:00 PM 46.4 °F 46.4 °F 100% 30.33 in 3.7 mi Calm Calm - N/A Fog Patches of Fog
10:30 PM 46.4 °F 46.4 °F 100% 30.33 in 2.5 mi Calm Calm - N/A Fog Patches of Fog
11:00 PM 46.4 °F 46.4 °F 100% 30.33 in 2.5 mi Calm Calm - N/A Fog Patches of Fog
11:30 PM 46.4 °F 46.4 °F 100% 30.33 in 2.5 mi Calm Calm - N/A Fog Patches of Fog